Location: Famechon
(49.7599°N, 2.0615°E)
Time: 10:42:28
(UTC+00:00)

Cosmos 1954 Rocket - Pass Details

Date: 03 February 2023
Orbit: 752 x 780 km, 74.0° (Epoch: 23 March)

Event Time Altitude Azimuth Distance (km) Brightness Sun altitude
Rises 18:10:52 0° 197° (SSW) 3,230 7.6 -13.3°
Reaches altitude 10° 18:13:14 10° 196° (SSW) 2,303 6.8 -13.7°
Maximum altitude 18:18:28 77° 111° (ESE) 789 3.9 -14.5°
Drops below altitude 10° 18:23:40 10° 26° (NNE) 2,301 6.2 -15.4°
Enters shadow 18:24:46 - 26° (NNE) 2,727 6.5 -15.5°
